sat.trackr.live / text

‹ back to catalog

JILIN-1 GAOFEN 2D

NORAD 49256 · 2021-086A

PAYLOAD ACTIVE UNKNOWN

§ Identity

Operator
Country
PRC
Launch date
2021-09-27
Launch site
JSC
Launch vehicle
Mass (kg)
RCS (m²)

External: N2YO · Heavens-Above · Gunter

§ Orbital elements

Epoch: 2026-09-20T22:47:34.001376Z

Period
95.46 min
Inclination
97.6581°
Eccentricity
0.0030413
Mean motion
15.08454899 rev/d
Perigee alt
519.9 km
Apogee alt
562.0 km
Semi-major
6,919.1 km
B*
1.9405e-4
RAAN
26.6187°
Arg perigee
196.3363°
Mean anomaly
163.6888°
Rev number
27,517

§ Raw data

JILIN-1 GAOFEN 2D1 49256U 21086A   26263.94969909  .00002988  00000+0  19405-3 0  99952 49256  97.6581  26.6187 0030413 196.3363 163.6888 15.08454899275171

JSON: /api/v1/satellites/49256 · /tle

For live sub-satellite position, see the globe view (requires WebGL).

§ Visibility from observer

Set your observer location to see the next 7 days of passes ≥ 10°. The values pass through the URL so the page stays shareable.

No JS? Fill the form by hand. The geolocation button needs JavaScript.

§ Radio — SatNOGS DB

ModeDescriptionDownlinkUplink
BPSK S-band telemetry 2.219 GHz

1 transmitter · refreshed weekly from db.satnogs.org